Location: La Tine
(46.4708°N, 7.0525°E)
Time: 01:13:30
(UTC+00:00)

Cosmos 1833 Rocket - Pass Details

Date: 24 January 2021
Orbit: 833 x 839 km, 71.0° (Epoch: 03 March)

Event Time Altitude Azimuth Distance (km) Brightness Sun altitude
Rises 18:24:39 0° 334° (NNW) 3,391 6.1 -20.6°
Reaches altitude 10° 18:27:08 10° 338° (NNW) 2,454 5.3 -21.0°
Maximum altitude 18:32:44 67° 61° (ENE) 903 2.6 -21.9°
Enters shadow 18:34:56 37° 132° (SE) 1,275 3.3 -22.3°
